Tracking 29892 objects as of 21-Nov-2024
HD Live streaming from Space Station
objects crossing your sky now

COSMOS 570

Track COSMOS 570 now!
10-day predictions
COSMOS 570 is classified as:


NORAD ID: 6681
Int'l Code: 1973-037G
Perigee: 1,343.5 km
Apogee: 1,487.7 km
Inclination: 74.0 °
Period: 114.0 minutes
Semi major axis: 7786 km
RCS: 0.6979 m2 (medium)
Launch date: June 8, 1973
Source: Commonwealth of Independent States (former USSR) (CIS)
Launch site: PLESETSK MISSILE AND SPACE COMPLEX (PKMTR)
Your satellite tracking list
Your tracking list is empty




NASA's NSSDC Master Catalog

Two Line Element Set (TLE):
1 06681U 73037G   24325.32899354  .00000001  00000-0  96103-4 0  9994
2 06681  74.0189  81.4763 0092613 327.6806  60.8715 12.63518530373165
Source of the keplerian elements: AFSPC